Flag for Colombia Weather past 2 weeks in Cali, Colombia

Now
66 °F

Passing clouds.


Feels Like: 66 °F
Forecast: 69 / 82 °F
Wind: 6 mph from Northeast

Location: Cali / Alfonso Bonillaaragon

Current Time: May 23, 2015 at 4:52:06 AM

Latest Report: May 23, 2015 at 4:00 AM


Visibility: N/A

Pressure: 30.00 "Hg

Humidity: 94%

Dew point: 64 °F

Location of CaliLocation

Historic Weather in Cali — Graph

°F

Cali temperature yesterday

Maximum temperature yesterday: 86 °F (at 1:00 PM)
Minimum temperature yesterday: 66 °F (at 3:00 AM)
Average temperature yesterday: 74 °F

Past Weeks' High & Low Weather Summary

 TemperatureHumidityPressure
High90 °F (May 8, 3:00 PM)100% (May 19, 5:00 AM)30.29 "Hg (May 19, 5:00 AM)
Low63 °F (May 13, 9:00 PM)43% (May 8, 4:00 PM)29.81 "Hg (May 9, 4:00 PM)
Average77 °F74%29.95 "Hg
* Reported May 8 3:00 AM — May 23 3:00 AM, Cali, Weather by CustomWeather, © 2015

Note: Actual official high and low records may vary slightly from our data, if they occured in-between our weather recording intervals... More about our weather records

Advertising

Cali weather history for previous 24 hours

 ConditionsComfort  
Time TempWeatherWind HumidityBarometerVisibility
3:00 AM
Sat, May 23
68 °FPassing clouds.No wind88%29.99 "HgN/A
2:00 AM70 °FPassing clouds.2 mph88%30.01 "HgN/A
1:00 AM68 °FPassing clouds.5 mph94%30.03 "HgN/A
12:00 AM70 °FPassing clouds.No wind88%30.04 "HgN/A
11:00 PM
Fri, May 22
68 °FPassing clouds.3 mph94%30.04 "HgN/A
10:00 PM70 °FPassing clouds.5 mph88%30.03 "HgN/A
9:00 PM70 °FPassing clouds.2 mph88%30.01 "HgN/A
8:00 PM72 °FClear.5 mph83%29.99 "HgN/A
7:00 PM73 °FClear.6 mph78%29.97 "HgN/A
6:00 PM75 °FBroken clouds.2 mph74%29.94 "HgN/A
5:00 PM79 °FPartly sunny.8 mph65%29.94 "HgN/A
4:00 PM79 °FScattered showers. Partly sunny.3 mph74%29.94 "HgN/A
3:00 PM82 °FScattered showers. Broken clouds.9 mph58%29.94 "Hg6 mi
2:00 PM86 °FScattered clouds.5 mph52%29.96 "HgN/A
1:00 PM86 °FScattered clouds.5 mph52%29.99 "HgN/A
12:00 PM82 °FBroken clouds.5 mph58%30.03 "HgN/A
11:00 AM82 °FScattered clouds.2 mph58%30.05 "HgN/A
10:00 AM81 °FScattered clouds.No wind66%30.07 "Hg6 mi
9:00 AM73 °FScattered clouds.3 mph100%30.09 "Hg5 mi
8:00 AM72 °FScattered clouds.3 mph94%30.08 "Hg4 mi
7:00 AM68 °FScattered clouds.3 mph100%30.06 "Hg4 mi
6:00 AM66 °FFog.5 mph100%30.05 "Hg4 mi
5:00 AM66 °FPassing clouds.3 mph100%30.04 "Hg6 mi
4:00 AM66 °FPassing clouds.3 mph94%30.03 "HgN/A
Weather by CustomWeather, © 2015

See weather overviewHow to use our weather pages